Regional Weather Roundup
Issued by NWS

Home | Current Version | Previous Version | Graphics & Text | Print | Product List | Glossary On
Versions: 1 2 3 4 5 6 7 8 9 10 11 12 13 14 15 16 17 18 19 20 21 22 23 24 25 26 27
000
ASUS45 KCYS 282310
RWRWY

WYOMING REGIONAL WEATHER ROUNDUP
NATIONAL WEATHER SERVICE CHEYENNE WY
500 PM MDT TUE MAR 28 2017

NOTE:  "FAIR" INDICATES FEW OR NO CLOUDS BELOW 12,000 FEET
WITH NO SIGNIFICANT WEATHER AND/OR OBSTRUCTIONS TO VISIBILITY.

WYZ001-290000-
YELLOWSTONE NATIONAL PARK

CITY           SKY/WX    TMP DP  RH WIND       PRES   REMARKS
LK YELLOWSTONE   N/A     40  14  34 VRB6      30.14S
W YELLOWSTONE  NOT AVBL

$$
WYZ002>013-054>058-071-098>099-290000-
NORTHERN WYOMING

CITY           SKY/WX    TMP DP  RH WIND       PRES   REMARKS
JACKSON        SUNNY     43  21  42 NW14      30.13R
CODY           PTSUNNY   48  29  47 N3        30.08S
GREYBULL       FAIR      55  28  35 NW9       30.05S
WORLAND        FAIR      49  39  68 SE6       30.07S
SHERIDAN       CLOUDY    46  37  71 N8        30.11S
BUFFALO        FAIR      45  33  63 N14G25    30.09S
GILLETTE       CLOUDY    48  37  65 N14       30.05R
HULETT         RAIN      43  41  93 E6        30.06R
NEWCASTLE      LGT RAIN  45  43  93 SE10      30.04S

$$
WYZ014>020-022>026-101>103-290000-
CENTRAL WYOMING

CITY           SKY/WX    TMP DP  RH WIND       PRES   REMARKS
BIG PINEY      FAIR      48  21  34 N22       30.08R
PINEDALE       FAIR      45  19  36 NW22G28   30.08S
DUBOIS         FAIR      45  27  49 SE8       30.06R
LANDER         CLOUDY    44  34  67 NW12      30.08R
RIVERTON       FAIR      47  29  49 NE9       30.08R
CASPER         CLOUDY    43  34  70 NE16      30.06R
DOUGLAS        LGT RAIN  42  38  85 N13       30.04R

$$
WYZ021-027>030-104>119-290000-
SOUTHERN WYOMING

CITY           SKY/WX    TMP DP  RH WIND       PRES   REMARKS
EVANSTON       FAIR      43  22  43 NW18G26   30.12R
KEMMERER         N/A     41  27  56 W20       30.10S
ROCK SPRINGS   CLOUDY    40  31  70 N7        30.08R
DIXON            N/A     44  32  62 N25G32    30.03R
RAWLINS        PTSUNNY   40  32  73 N20G26    30.05R WCI  30
SARATOGA       CLOUDY    37  36  93 N17G26    30.02R WCI  28
LARAMIE        LGT RAIN  36  35  96 NE16G26   29.97R WCI  26
CHEYENNE       LGT RAIN  39  37  92 N22G33    29.93R WCI  29
TORRINGTON     LGT RAIN  44  42  93 NE15      30.00R
PINE BLUFFS    CLOUDY    41  41 100 E12       29.95R

$$




USA.gov is the U.S. government's official web portal to all federal, state and local government web resources and services.